Location: Newark
(45.5867°N, 8.8515°E)
Time: 15:15:47
(UTC+00:00)

Envisat - Visible Passes

Search period start: 15 December 2019 00:00
Search period end: 25 December 2019 00:00
Orbit: 764 x 766 km, 98.1° (Epoch: 15 December)

Date Brightness Start Highest point End Pass type
(mag) Time Alt. Az. Time Alt. Az. Time Alt. Az.
15 Dec 6.0 04:57:39 10° NE 05:00:39 16° E 05:03:40 10° SE visible
15 Dec 3.9 16:13:59 10° ESE 16:18:11 27° ENE 16:22:24 10° N visible
15 Dec 4.2 17:52:11 10° S 17:56:59 43° W 18:01:50 10° NNW visible
16 Dec 3.8 05:58:24 10° NNE 06:03:26 55° E 06:08:24 10° S visible
16 Dec 2.9 17:15:03 10° SSE 17:20:08 89° E 17:25:15 10° NNW visible
16 Dec 6.1 18:58:01 10° WSW 18:59:52 12° W 19:01:44 10° WNW visible
17 Dec 5.3 05:22:10 10° NE 05:26:25 26° E 05:30:39 10° SSE visible
17 Dec 3.3 16:38:42 10° SE 16:43:29 43° ENE 16:48:17 10° N visible
17 Dec 5.1 18:18:28 10° SSW 18:22:40 26° W 18:26:52 10° NW visible
18 Dec 6.2 04:47:11 10° ENE 04:49:14 12° E 04:51:16 10° ESE visible
18 Dec 3.0 06:23:49 10° NNE 06:28:56 87° WNW 06:34:01 10° SSW visible
18 Dec 3.7 17:40:42 10° S 17:45:39 54° W 17:50:40 10° NNW visible
19 Dec 4.3 05:47:13 10° NNE 05:52:05 44° E 05:56:56 10° S visible
19 Dec 2.9 17:03:49 10° SSE 17:08:52 73° ENE 17:13:57 10° N visible
19 Dec 5.9 18:45:33 10° WSW 18:48:26 15° W 18:51:21 10° NW visible
20 Dec 5.6 05:11:11 10° NE 05:15:02 21° E 05:18:51 10° SE visible
20 Dec 3.6 16:27:41 10° SE 16:32:16 35° ENE 16:36:51 10° N visible
20 Dec 4.8 18:06:47 10° SSW 18:11:17 32° W 18:15:50 10° NNW visible
21 Dec 3.3 06:12:33 10° NNE 06:17:39 76° ESE 06:22:43 10° S visible
21 Dec 3.3 17:29:19 10° S 17:34:21 68° WSW 17:39:26 10° NNW visible
22 Dec 4.7 05:36:05 10° NNE 05:40:45 35° E 05:45:23 10° SSE visible
22 Dec 3.0 16:52:39 10° SSE 16:57:37 58° ENE 17:02:36 10° N visible
22 Dec 5.6 18:33:28 10° SW 18:37:01 19° W 18:40:36 10° NW visible
23 Dec 5.9 05:00:21 10° NE 05:03:38 17° E 05:06:54 10° SE visible
23 Dec 3.8 16:16:45 10° ESE 16:21:04 29° ENE 16:25:23 10° N visible
23 Dec 4.4 17:55:12 10° SSW 17:59:56 39° W 18:04:43 10° NNW visible
24 Dec 3.7 06:01:18 10° NNE 06:06:21 61° E 06:11:22 10° S visible
24 Dec 3.0 17:17:59 10° SSE 17:23:03 84° WSW 17:28:11 10° NNW visible
24 Dec 6.2 19:01:41 10° W 19:02:51 11° W 19:04:02 10° WNW visible
